GW0776 Weather Reports


Display with metric or nautical units.
time (UTC)temp
F
wind
direction
speed
MPH
gust
MPH
rain 1hr
in
rain 24hr
in
rain mn
in
humidity
%
barometer
mb
20260502161511 69 323 4.0 11.0 0.00 1.18 0.00 64 1021.8
20260502161011 69 337 4.0 8.0 0.00 1.19 0.00 65 1021.8
20260502160511 68 104 2.0 8.0 0.00 1.21 0.00 66 1021.7
20260502152011 65 306 8.0 10.0 0.00 1.25 0.00 75 1021.7
20260502151511 65 311 5.0 10.0 0.00 1.25 0.00 75 1021.6
20260502151011 65 113 7.0 10.0 0.00 1.25 0.00 75 1021.5
20260502150511 64 321 3.0 9.0 0.00 1.25 0.00 77 1021.6
20260502130510 56 264 1.0 6.0 0.00 1.85 0.00 91 1020.3
20260502123511 54 341 2.0 5.0 0.00 1.94 0.00 93 1019.8
20260502122510 54 316 0.0 7.0 0.00 2.02 0.00 93 1019.7
20260502122010 54 3 3.0 2.0 0.00 2.07 0.00 93 1019.6
20260502121510 53 310 1.0 4.0 0.00 2.07 0.00 93 1019.4
20260502120510 53 331 2.0 4.0 0.00 2.09 0.00 93 1019.4
20260502115510 53 352 0.0 3.0 0.00 2.20 0.00 93 1019.3
20260502114010 53 321 1.0 3.0 0.00 2.32 0.00 94 1019.2
20260502113510 53 321 2.0 3.0 0.00 2.33 0.00 94 1019.1
20260502112510 53 20 1.0 4.0 0.00 2.34 0.00 93 1019.0
20260502112010 53 17 0.0 5.0 0.00 2.34 0.00 93 1019.0
20260502111510 53 315 3.0 5.0 0.00 2.35 0.00 93 1019.0
20260502111010 53 332 0.0 4.0 0.00 2.39 0.00 93 1018.9
20260502110010 53 308 2.0 4.0 0.00 2.49 0.00 93 1018.8
20260502105510 53 321 3.0 4.0 0.00 2.52 0.00 93 1018.8
20260502105010 53 326 3.0 4.0 0.00 2.52 0.00 93 1018.8
20260502104510 53 323 1.0 3.0 0.00 2.52 0.00 93 1018.7
20260502104010 53 325 1.0 3.0 0.00 2.53 0.00 93 1018.6
20260502103510 53 312 1.0 5.0 0.00 2.57 0.00 93 1018.6
20260502102510 53 306 1.0 4.0 0.00 2.67 0.00 93 1018.6
20260502102011 53 327 1.0 3.0 0.00 2.68 0.00 93 1018.6
20260502101510 53 321 1.0 6.0 0.00 2.69 0.00 93 1018.4
20260502101010 53 326 2.0 6.0 0.00 2.69 0.00 93 1018.3
20260502091511 54 355 2.0 4.0 0.00 3.31 0.00 91 1017.4
20260502071511 55 312 2.0 5.0 0.00 4.37 0.00 91 1017.2
20260502071010 55 331 2.0 9.0 0.00 4.37 0.00 91 1017.3
20260502070011 55 314 1.0 7.0 0.00 4.37 0.00 91 1017.2
20260502065011 55 17 1.0 6.0 0.00 4.37 0.00 92 1017.0
20260502064511 55 3 0.0 8.0 0.00 4.37 0.00 92 1017.0
20260502063511 55 353 2.0 8.0 0.00 4.37 0.00 93 1016.9
20260502063010 55 350 2.0 9.0 0.00 4.37 0.00 93 1017.0
20260502062511 55 199 2.0 9.0 0.00 4.37 0.00 93 1017.0
20260502062010 55 356 2.0 6.0 0.00 4.38 0.00 93 1016.9
20260502061010 55 3 1.0 7.0 0.00 4.38 0.00 93 1016.8
20260502060510 55 119 2.0 9.0 0.00 4.38 0.00 93 1016.8
20260502060010 55 329 3.0 9.0 0.00 4.43 0.00 93 1016.9
20260502055510 55 339 2.0 8.0 0.00 4.47 0.00 94 1016.8
20260502055011 55 335 1.0 8.0 0.00 4.47 0.00 94 1016.9
20260502054511 55 287 3.0 6.0 0.00 4.47 0.00 94 1016.8
20260502053010 56 285 2.0 10.0 0.00 4.47 0.00 94 1016.8
20260502052510 56 334 3.0 10.0 0.00 4.47 0.00 94 1016.8
20260502052010 56 321 5.0 8.0 0.00 4.48 0.00 95 1016.8
20260502051510 56 8 8.0 13.0 0.00 4.50 0.00 95 1016.8
20260502050510 56 320 2.0 10.0 0.00 4.63 0.00 95 1016.8
20260502050011 56 8 5.0 10.0 0.00 4.78 0.00 95 1016.7
20260502045511 56 17 2.0 8.0 0.00 4.97 4.78 95 1016.8
20260502044510 56 77 2.0 7.0 0.00 4.98 4.78 95 1016.7
20260502044010 56 42 1.0 8.0 0.00 4.98 4.78 95 1016.6
20260502043510 56 254 2.0 8.0 0.00 4.98 4.78 95 1016.5
20260502043010 56 120 1.0 8.0 0.00 4.98 4.78 95 1016.5
20260502042510 56 44 3.0 11.0 0.00 4.98 4.78 96 1016.6
20260502042010 56 273 2.0 11.0 0.00 4.98 4.78 96 1016.6
20260502041510 56 321 5.0 11.0 0.00 4.98 4.78 96 1016.8
20260502041010 56 333 3.0 11.0 0.00 4.98 4.78 96 1016.9
20260502040510 56 354 8.0 10.0 0.00 4.98 4.78 96 1016.9
20260502040010 56 115 3.0 10.0 0.00 4.98 4.78 96 1016.9
20260502035510 56 305 3.0 10.0 0.00 4.98 4.78 96 1016.8
20260502035010 56 319 3.0 9.0 0.00 4.98 4.78 96 1016.7
20260502034510 56 314 5.0 9.0 0.00 4.98 4.78 96 1016.6
20260502034010 56 302 3.0 9.0 0.00 4.98 4.78 96 1016.6
20260502033010 56 350 4.0 9.0 0.01 4.98 4.78 96 1016.5
20260502032510 56 140 1.0 9.0 0.02 4.98 4.78 96 1016.4
20260502032010 56 302 3.0 10.0 0.04 4.98 4.78 96 1016.3
20260502031510 56 42 3.0 10.0 0.05 4.98 4.78 96 1016.1
20260502030511 56 358 5.0 9.0 0.07 4.98 4.78 96 1015.8
20260502030011 56 314 4.0 8.0 0.08 4.98 4.78 96 1015.7
20260502025011 56 277 2.0 9.0 0.09 4.98 4.78 96 1015.3
20260502024011 56 250 2.0 7.0 0.11 4.98 4.78 96 1015.3
20260502023511 56 312 3.0 7.0 0.11 4.97 4.77 96 1015.6
20260502023011 56 339 1.0 9.0 0.14 4.97 4.77 96 1015.7
20260502022511 56 269 3.0 9.0 0.14 4.96 4.76 96 1015.4
20260502021511 56 308 3.0 11.0 0.13 4.93 4.73 96 1015.2
20260502021011 57 323 2.0 8.0 0.13 4.92 4.72 96 1015.1
20260502020513 57 260 2.0 10.0 0.12 4.91 4.71 96 1015.3
20260502020011 57 302 2.0 11.0 0.12 4.90 4.70 96 1015.3
20260502015511 57 319 4.0 11.0 0.11 4.89 4.69 96 1015.1
20260502015011 57 190 2.0 9.0 0.11 4.89 4.69 96 1015.2
20260502014511 57 355 4.0 9.0 0.11 4.88 4.68 96 1015.0
20260502014011 57 314 3.0 10.0 0.10 4.87 4.67 95 1014.8
20260502013511 57 193 1.0 10.0 0.09 4.86 4.66 96 1014.6
20260502013011 57 292 3.0 9.0 0.07 4.83 4.63 96 1014.4
20260502012511 58 347 4.0 13.0 0.06 4.82 4.62 96 1014.4
20260502012011 58 290 3.0 13.0 0.06 4.81 4.61 95 1014.3
20260502011511 58 353 8.0 12.0 0.06 4.80 4.60 96 1014.7
20260502011011 58 319 4.0 13.0 0.07 4.79 4.59 96 1014.8
20260502010511 58 312 3.0 13.0 0.09 4.79 4.59 96 1014.9
20260502010011 58 354 5.0 14.0 0.08 4.78 4.58 96 1014.1
20260502005511 59 304 0.0 14.0 0.09 4.78 4.58 96 1013.5
20260502005011 59 341 3.0 10.0 0.09 4.78 4.58 96 1012.9
20260502004511 58 342 2.0 11.0 0.08 4.77 4.57 96 1012.6
20260502004011 59 87 2.0 11.0 0.08 4.77 4.57 96 1012.9
20260502003511 59 32 5.0 10.0 0.09 4.77 4.57 96 1013.6
20260502002510 59 318 3.0 8.0 0.09 4.76 4.56 96 1014.0
20260502001511 59 293 2.0 8.0 0.15 4.74 4.54 96 1013.6
20260502001011 59 331 2.0 5.0 0.17 4.72 4.52 96 1013.6
20260502000510 59 295 3.0 6.0 0.18 4.70 4.50 96 1013.9
20260502000011 59 331 5.0 9.0 0.23 4.70 4.50 96 1013.6
20260501235511 59 3 1.0 9.0 0.22 4.69 4.49 96 1013.5
20260501235011 59 354 2.0 6.0 0.22 4.69 4.49 96 1012.8
20260501234010 59 154 1.0 9.0 0.22 4.69 4.49 95 1012.6
20260501233510 59 129 2.0 9.0 0.21 4.68 4.48 96 1012.5
20260501233010 59 254 1.0 8.0 0.21 4.68 4.48 96 1012.7
20260501232510 59 114 1.0 8.0 0.20 4.67 4.47 96 1012.1
20260501232010 59 84 4.0 8.0 0.17 4.64 4.44 95 1012.2
20260501231511 59 55 3.0 3.0 0.12 4.59 4.39 95 1013.1
20260501230510 60 284 2.0 7.0 0.06 4.53 4.33 95 1012.7
20260501230010 59 94 1.0 7.0 0.00 4.47 4.27 95 1012.6
20260501225510 59 343 2.0 11.0 0.00 4.47 4.27 95 1012.7
20260501225010 60 13 0.0 11.0 0.00 4.47 4.27 95 1011.5
20260501224511 60 94 11.0 16.0 0.00 4.47 4.27 95 1010.9
20260501224010 60 146 4.0 16.0 0.01 4.47 4.27 96 1011.1
20260501223511 60 13 2.0 11.0 0.02 4.47 4.27 96 1011.4
20260501222510 60 84 2.0 12.0 0.02 4.47 4.27 96 1011.3
20260501222010 60 357 3.0 10.0 0.02 4.47 4.27 96 1011.5
20260501221510 60 84 1.0 10.0 0.02 4.47 4.27 96 1011.8
20260501221010 60 333 1.0 10.0 0.03 4.47 4.27 96 1012.1
20260501220511 60 291 3.0 8.0 0.03 4.47 4.27 96 1012.3
20260501215510 61 350 1.0 9.0 0.04 4.47 4.27 96 1012.7
20260501215010 61 196 3.0 9.0 0.06 4.47 4.27 96 1012.8
20260501214510 61 312 3.0 9.0 0.07 4.47 4.27 96 1012.9
20260501214010 61 355 3.0 10.0 0.07 4.46 4.26 96 1012.5
20260501213010 61 292 2.0 6.0 0.08 4.45 4.25 96 1012.3
20260501212510 61 302 3.0 5.0 0.11 4.45 4.25 96 1012.5
20260501212010 61 101 1.0 7.0 0.13 4.45 4.25 96 1012.1
20260501211510 61 136 3.0 10.0 0.14 4.45 4.25 96 1011.1
20260501210510 61 118 4.0 9.0 0.16 4.44 4.24 96 1010.5
20260501210010 61 129 1.0 11.0 0.15 4.43 4.23 96 1010.8
20260501205510 61 223 3.0 11.0 0.15 4.43 4.23 96 1010.5
20260501204510 61 317 3.0 7.0 0.15 4.40 4.20 96 1012.1
20260501204010 61 138 1.0 9.0 0.14 4.39 4.19 96 1011.0
20260501203010 61 356 3.0 8.0 0.13 4.37 4.17 97 1011.0
20260501202011 62 298 2.0 10.0 0.11 4.32 4.12 96 1010.7
20260501201511 62 296 2.0 10.0 0.10 4.31 4.11 96 1010.9
20260501200011 62 337 5.0 10.0 0.11 4.28 4.08 97 1010.6
20260501195511 62 339 8.0 10.0 0.14 4.28 4.08 97 1010.2
20260501195011 62 313 2.0 7.0 0.16 4.27 4.07 97 1010.4
20260501193511 62 140 0.0 5.0 0.17 4.25 4.05 97 1010.6
20260501193011 62 318 3.0 4.0 0.17 4.24 4.04 97 1010.6
20260501192511 62 3 1.0 4.0 0.17 4.22 4.02 97 1010.5
20260501192011 62 254 0.0 8.0 0.19 4.21 4.01 97 1010.2
20260501191511 62 299 0.0 8.0 0.19 4.21 4.01 97 1010.0
20260501191011 62 3 0.0 3.0 0.19 4.21 4.01 97 1010.8
20260501190511 62 302 0.0 9.0 0.18 4.19 3.99 97 1010.5
20260501190012 62 108 1.0 9.0 0.17 4.17 3.97 97 1010.4
20260501185511 62 120 3.0 8.0 0.15 4.14 3.94 97 1010.1
20260501185011 62 119 2.0 3.0 0.13 4.11 3.91 97 1010.4
20260501184510 62 317 1.0 6.0 0.13 4.10 3.90 97 1010.9
20260501184011 62 30 0.0 8.0 0.13 4.09 3.89 97 1010.6
20260501183510 62 334 2.0 11.0 0.12 4.08 3.88 97 1010.8
20260501182511 62 120 3.0 9.0 0.10 4.05 3.85 97 1009.0
20260501181510 62 30 4.0 11.0 0.07 4.02 3.82 96 1009.3
20260501180510 62 90 2.0 7.0 0.07 4.01 3.81 96 1009.7
20260501180011 62 85 3.0 10.0 0.06 4.00 3.80 96 1010.4
20260501175511 62 42 1.0 10.0 0.06 3.99 3.79 96 1010.6
20260501175012 62 95 1.0 8.0 0.07 3.98 3.78 96 1010.7
20260501174011 62 347 1.0 9.0 0.07 3.96 3.76 96 1011.4
20260501173511 62 331 5.0 9.0 0.09 3.96 3.76 96 1011.6
20260501173011 62 354 4.0 9.0 0.10 3.95 3.75 96 1011.5
20260501172511 62 329 4.0 9.0 0.12 3.95 3.75 97 1011.3
20260501172010 62 302 1.0 10.0 0.13 3.95 3.75 97 1011.5
20260501171511 62 30 5.0 10.0 0.15 3.95 3.75 97 1011.7
20260501171010 62 344 1.0 8.0 0.15 3.94 3.74 97 1011.7
20260501170010 62 338 1.0 14.0 0.18 3.94 3.74 96 1011.9
20260501165511 62 42 2.0 14.0 0.18 3.93 3.73 96 1012.1
20260501165010 62 3 3.0 13.0 0.16 3.91 3.71 96 1012.3
20260501164510 62 229 2.0 10.0 0.16 3.90 3.70 96 1012.4
20260501164010 62 294 7.0 10.0 0.15 3.89 3.69 96 1012.9
20260501163010 62 317 4.0 6.0 0.12 3.85 3.65 96 1013.1
20260501162511 62 313 2.0 5.0 0.10 3.83 3.63 96 1013.7